[[{"header":{"parameterUnit":"m.s-1","parameterCategory":1,"la1":30.2992,"la2":30.254,"lo1":-89.0895,"lo2":-89.0443,"dy":0.0025,"dx":0.0025,"nx":19,"ny":19,"refTime":"2026-05-23T09:00:00:Z","depth":0,"parameterNumber":2,"parameterNumberName":"U-component_of_WINDS"},"data":[0,0,0,-1.0749,-1.075,-1.0796,-1.0796,-1.087,-1.0871,0,0,0,0,0,0,0,0,0,0,0,-1.0741,-1.0742,-1.0748,-1.075,-1.0796,-1.0796,-1.087,-1.0871,0,0,0,0,0,0,0,0,0,0,0,-1.0741,-1.0742,-1.0743,-1.075,-1.0796,-1.0796,-1.087,-1.083,0,0,0,0,0,0,0,0,0,0,-1.0783,-1.0782,-1.0742,-1.0743,-1.075,-1.0796,-1.0796,-1.0828,-1.0833,-1.0855,0,-1.0874,0,-1.0874,-1.0877,-1.0877,0,0,0,-1.0745,-1.0778,-1.0785,-1.0743,-1.0751,-1.0796,-1.0774,-1.083,-1.0836,-1.0861,-1.0875,-1.0878,-1.0875,-1.0877,-1.0878,-1.1017,-1.1018,0,0,-1.0743,-1.0754,-1.0781,-1.0788,-1.078,-1.0773,-1.0776,-1.0833,-1.0851,-1.0875,-1.0879,-1.0876,-1.0878,-1.0878,-1.1016,-1.1017,0,0,0,-1.0738,-1.0752,-1.0757,-1.0786,-1.0793,-1.0774,-1.0777,-1.0848,-1.0848,-1.088,-1.0877,-1.0878,-1.0879,-1.1015,-1.1016,-1.1071,0,0,0,-1.0736,-1.075,-1.0756,-1.0763,-1.0792,-1.0821,-1.0791,-1.0844,-1.0851,-1.0877,-1.0878,-1.088,-1.1014,-1.1016,-1.1067,-1.1095,0,0,0,-1.0736,-1.075,-1.0758,-1.0764,-1.0784,-1.0819,-1.0823,-1.0845,-1.0849,-1.0877,-1.088,-1.1013,-1.1015,-1.1064,-1.109,-1.1137,0,0,0,-1.0739,-1.0806,-1.0759,-1.0833,-1.0784,-1.0852,-1.0823,-1.0873,-1.0903,-1.0879,-1.1014,-1.1016,-1.1063,-1.1087,-1.1133,-1.1179,-1.1198,0,0,-1.083,-1.0817,-1.086,-1.0819,-1.0898,-1.0844,-1.0932,-1.0949,-1.0942,-1.0993,-1.0996,-1.1068,-1.109,-1.1136,-1.1301,-1.1316,0,0,0,-1.0892,-1.0923,-1.0941,-1.097,-1.0984,-1.1,-1.1002,-1.1009,-1.1051,-1.0969,-1.1096,-1.1109,-1.1135,-1.1157,-1.117,-1.1193,-1.1026,-1.1026,-1.1026,-1.1038,-1.1024,-1.1094,-1.1086,-1.1115,-1.1117,-1.114,-1.1149,-1.1127,-1.1158,-1.1173,-1.1275,-1.13,-1.131,-1.1335,-1.1195,-1.1195,-1.1195,-1.1195,-1.1171,-1.1213,-1.1182,-1.1239,-1.1225,-1.1273,-1.1278,-1.1262,-1.1306,-1.1262,-1.1285,-1.1239,-1.1328,-1.1349,-1.1199,-1.1199,-1.1198,-1.1198,-1.1197,-1.1266,-1.1284,-1.129,-1.1331,-1.1364,-1.1355,-1.1399,-1.1384,-1.1371,-1.1393,-1.141,-1.1409,-1.1408,-1.1401,-1.1402,-1.1402,-1.1403,-1.1403,-1.1403,-1.1363,-1.1368,-1.1406,-1.1427,-1.1444,-1.1465,-1.1469,-1.1486,-1.1501,-1.1488,-1.1488,-1.1465,-1.1338,-1.1308,-1.1409,-1.1408,-1.1407,-1.1406,-1.1406,-1.1507,-1.1472,-1.1531,-1.1548,-1.1572,-1.1608,-1.1588,-1.1624,-1.1636,-1.1659,-1.1631,-1.1539,-1.1525,-1.1515,-1.149,-1.1632,-1.1632,-1.1632,-1.1632,-1.1589,-1.158,-1.1637,-1.1666,-1.1693,-1.1681,-1.1751,-1.1755,-1.1753,-1.176,-1.1737,-1.1702,-1.1692,-1.1685,-1.167,-1.1647,-1.1826,-1.1826,-1.1826,-1.1677,-1.167,-1.1732,-1.1728,-1.1746,-1.1763,-1.1828,-1.1865,-1.1856,-1.1834,-1.1766,-1.1758,-1.1701,-1.1683,-1.1661,-1.1639,-1.1596,0,0]},{"header":{"parameterUnit":"m.s-1","parameterCategory":1,"la1":30.2992,"la2":30.254,"lo1":-89.0895,"lo2":-89.0443,"dy":0.0025,"dx":0.0025,"nx":19,"ny":19,"refTime":"2026-05-23T09:00:00:Z","depth":0,"parameterNumber":3,"parameterNumberName":"V-component_of_WINDS"},"data":[0,0,0,3.9087,3.9089,3.9202,3.9203,3.9352,3.9353,0,0,0,0,0,0,0,0,0,0,0,3.906,3.9061,3.9087,3.909,3.9202,3.9203,3.9351,3.9353,0,0,0,0,0,0,0,0,0,0,0,3.9059,3.9061,3.9062,3.909,3.9202,3.9203,3.9351,3.9263,0,0,0,0,0,0,0,0,0,0,3.9153,3.9135,3.906,3.9062,3.9091,3.9202,3.9203,3.9259,3.9269,3.9304,0,3.934,0,3.9349,3.9364,3.9364,0,0,0,3.9084,3.9127,3.9152,3.9063,3.9092,3.9202,3.915,3.9265,3.9276,3.9317,3.9342,3.9347,3.9351,3.9365,3.9366,3.959,3.9592,0,0,3.9078,3.9083,3.9144,3.9159,3.9146,3.9146,3.9153,3.9271,3.9297,3.9342,3.935,3.9354,3.9366,3.9367,3.9589,3.9591,0,0,0,3.9064,3.9079,3.9101,3.9154,3.9174,3.915,3.9158,3.9292,3.9299,3.9352,3.9356,3.9367,3.9369,3.9588,3.959,3.9659,0,0,0,3.906,3.9071,3.9098,3.9102,3.9172,3.9235,3.9176,3.9291,3.9304,3.9355,3.9367,3.937,3.9586,3.9589,3.9654,3.969,0,0,0,3.905,3.9069,3.9088,3.9102,3.9151,3.9233,3.9246,3.9293,3.9307,3.9364,3.9371,3.9585,3.9588,3.9649,3.9683,3.9749,0,0,0,3.9041,3.9149,3.9089,3.9211,3.9151,3.9276,3.9246,3.9339,3.9397,3.9368,3.9587,3.959,3.9648,3.9678,3.9744,3.9804,3.9831,0,0,3.9179,3.9165,3.9236,3.9187,3.9324,3.9259,3.9405,3.9453,3.9453,3.9544,3.9549,3.9655,3.9682,3.9748,3.9979,4.0,0,0,0,3.9281,3.9332,3.9367,3.9424,3.9464,3.95,3.9525,3.9542,3.9619,3.9502,3.9698,3.9714,3.9752,3.978,3.9798,3.9829,3.9604,3.9603,3.9603,3.9483,3.9478,3.9594,3.9602,3.9657,3.9681,3.9723,3.975,3.9729,3.9775,3.9801,3.9943,3.9976,3.9989,4.0022,3.9834,3.9835,3.9835,3.9835,3.9683,3.9753,3.9722,3.9823,3.9816,3.9899,3.9925,3.9907,3.9981,3.9923,3.9956,3.9891,4.0013,4.004,3.984,3.9839,3.9839,3.9838,3.9838,3.9813,3.9846,3.9866,3.9945,4.0006,4.001,4.0082,4.0073,4.0065,4.0098,4.0123,4.0122,4.0117,4.0111,4.0112,4.0112,4.0113,4.0113,4.0113,3.9939,3.996,4.0024,4.0074,4.0107,4.015,4.0174,4.0206,4.0238,4.0225,4.0225,4.0197,4.0027,3.9983,4.0121,4.0119,4.0118,4.0118,4.0117,4.014,4.0093,4.0192,4.0226,4.0282,4.0341,4.0329,4.0394,4.0419,4.0454,4.0419,4.0296,4.028,4.0265,4.0229,4.0422,4.0422,4.0422,4.0422,4.0248,4.024,4.0337,4.0391,4.0443,4.0441,4.0548,4.0566,4.0578,4.0592,4.0563,4.0514,4.05,4.0492,4.0473,4.0438,4.0681,4.0681,4.0681,4.037,4.0366,4.0461,4.0473,4.0516,4.0552,4.0651,4.0711,4.0714,4.0691,4.0602,4.0591,4.0512,4.0487,4.0461,4.0431,4.0368,0,0]}]]